{"data":{"norad_id":66690,"epoch":"2026-09-20T02:42:45.674496Z","epoch_age_seconds":154375,"freshness":"FRESH","line1":"1 66690U 25276AA  26263.11302864  .00002679  00000+0  12854-3 0  9999","line2":"2 66690  97.4100 334.7378 0005614  43.4897 316.6780 15.19723457 44829","mean_motion":15.19723457,"eccentricity":0.0005614,"inclination_deg":97.41,"raan_deg":334.7378,"arg_perigee_deg":43.4897,"mean_anomaly_deg":316.678,"bstar":0.00012854,"rev_number":4482,"period_min":94.754081301253,"perigee_km":502.81056958193,"apogee_km":510.54083728534,"semimajor_km":6884.8127034336,"source":"CELESTRAK","updated_at":"2026-09-21T09:00:16.126423Z"}}